QPF
0.00 0.00 0.00 0.00 0.00 0.00 0.00 0.00 0.00 0.00 0.00 0.00 0.00 0.00 0.00 0.00 0.00 0.00 0.00 0.00 0.00 0.00 0.00 0.00 0.00 0.00 0.00 0.00 0.00 0.00 0.00 0.00 0.00 0.00 0.00 0.00 0.00 0.00 0.00 0.00 0.00 0.00 0.00
0.00 0.00 0.00 0.00 0.00 0.00 0.00 0.00 0.00 0.00 0.00 0.00 0.00 0.00 0.00 0.00 0.00 0.00 0.00 0.00 0.00 0.00 0.00 0.00 0.00 0.00 0.00 0.00 0.00 0.00 0.00 0.00 0.00 0.00 0.00 0.00 0.00 0.00 0.00 0.00 0.00 0.00 0.00
0.00 0.00 0.00 0.00 0.00 0.00 0.00 0.00 0.00 0.00 0.00 0.00 0.00 0.00 0.00 0.00 0.00 0.00 0.00 0.00 0.00 0.00 0.00 0.00 0.00 0.00 0.00 0.00 0.00 0.00 0.00 0.00 0.00 0.00 0.01 0.02 0.01 0.00 0.00 0.00 0.00 0.00 0.00
0.00 0.00 0.00 0.00 0.00 0.00 0.00 0.00 0.00 0.00 0.00 0.00 0.00 0.00 0.00 0.00 0.00 0.00 0.00 0.00 0.00 0.00 0.00 0.00 0.00 0.00 0.00 0.00 0.00 0.00 0.00 0.01 0.01 0.01 0.01 0.02 0.02 0.03 0.01 0.00 0.00 0.00 0.00
0.00 0.00 0.00 0.00 0.00 0.00 0.00 0.00 0.00 0.00 0.00 0.00 0.00 0.00 0.00 0.00 0.00 0.00 0.00 0.00 0.00 0.00 0.00 0.00 0.00 0.00 0.00 0.00 0.00 0.00 0.00 0.01 0.01 0.01 0.01 0.01 0.01 0.02 0.03 0.01 0.00 0.00 0.00
0.00 0.00 0.00 0.00 0.00 0.00 0.00 0.00 0.00 0.00 0.00 0.00 0.00 0.00 0.00 0.00 0.00 0.00 0.00 0.00 0.00 0.00 0.00 0.00 0.00 0.00 0.00 0.00 0.00 0.00 0.01 0.01 0.01 0.01 0.01 0.02 0.02 0.01 0.02 0.02 0.01 0.00 0.00
0.00 0.00 0.00 0.00 0.00 0.00 0.00 0.00 0.00 0.00 0.00 0.00 0.00 0.00 0.00 0.00 0.00 0.00 0.00 0.00 0.00 0.00 0.00 0.00 0.00 0.00 0.00 0.00 0.01 0.01 0.01 0.01 0.02 0.02 0.02 0.02 0.02 0.01 0.02 0.03 0.01 0.00 0.00
0.00 0.00 0.00 0.00 0.00 0.00 0.00 0.00 0.00 0.00 0.00 0.00 0.00 0.00 0.00 0.00 0.00 0.00 0.00 0.00 0.00 0.00 0.00 0.00 0.00 0.00 0.01 0.01 0.01 0.02 0.02 0.03 0.03 0.03 0.03 0.04 0.03 0.03 0.03 0.04 0.05 0.03 0.01
0.00 0.00 0.00 0.00 0.00 0.00 0.00 0.00 0.00 0.00 0.00 0.00 0.00 0.00 0.00 0.00 0.00 0.00 0.00 0.00 0.00 0.00 0.00 0.00 0.00 0.00 0.01 0.01 0.02 0.03 0.04 0.05 0.05 0.06 0.07 0.07 0.05 0.04 0.04 0.04 0.06 0.08 0.04
0.00 0.00 0.00 0.00 0.00 0.00 0.00 0.00 0.00 0.00 0.00 0.00 0.00 0.00 0.00 0.00 0.00 0.00 0.00 0.00 0.00 0.00 0.00 0.00 0.00 0.01 0.01 0.01 0.02 0.03 0.05 0.07 0.08 0.09 0.09 0.08 0.07 0.06 0.05 0.05 0.05 0.06 0.07
0.00 0.00 0.00 0.00 0.00 0.00 0.00 0.00 0.00 0.00 0.00 0.00 0.00 0.00 0.00 0.00 0.00 0.00 0.00 0.00 0.00 0.00 0.00 0.00 0.00 0.01 0.01 0.01 0.02 0.03 0.05 0.06 0.07 0.08 0.08 0.07 0.06 0.06 0.04 0.04 0.04 0.04 0.06
0.00 0.00 0.00 0.00 0.00 0.00 0.00 0.00 0.00 0.00 0.00 0.00 0.00 0.00 0.00 0.00 0.00 0.00 0.00 0.00 0.00 0.00 0.00 0.00 0.00 0.00 0.01 0.01 0.01 0.02 0.02 0.03 0.04 0.04 0.04 0.03 0.04 0.04 0.03 0.04 0.04 0.03 0.03
0.00 0.00 0.00 0.00 0.00 0.00 0.00 0.00 0.00 0.00 0.00 0.00 0.00 0.00 0.00 0.00 0.00 0.00 0.00 0.00 0.00 0.00 0.00 0.00 0.00 0.00 0.01 0.02 0.01 0.00 0.00 0.01 0.02 0.01 0.01 0.01 0.02 0.03 0.03 0.03 0.04 0.03 0.02
0.00 0.00 0.00 0.00 0.00 0.00 0.00 0.00 0.00 0.00 0.00 0.00 0.00 0.00 0.00 0.00 0.00 0.00 0.00 0.00 0.00 0.00 0.00 0.00 0.00 0.00 0.02 0.07 0.05 0.01 0.00 0.00 0.00 0.00 0.00 0.00 0.02 0.05 0.05 0.04 0.04 0.02 0.02
0.00 0.00 0.00 0.00 0.00 0.00 0.00 0.00 0.00 0.00 0.00 0.00 0.00 0.00 0.00 0.00 0.00 0.00 0.00 0.00 0.00 0.00 0.00 0.00 0.00 0.00 0.02 0.17 0.17 0.03 0.00 0.00 0.00 0.00 0.00 0.00 0.01 0.04 0.06 0.06 0.07 0.05 0.04
0.00 0.00 0.00 0.00 0.00 0.00 0.00 0.00 0.00 0.00 0.00 0.00 0.00 0.00 0.00 0.00 0.00 0.00 0.00 0.00 0.00 0.00 0.00 0.00 0.00 0.00 0.02 0.15 0.17 0.05 0.00 0.00 0.00 0.00 0.00 0.00 0.00 0.03 0.05 0.03 0.05 0.07 0.09
0.00 0.00 0.00 0.00 0.00 0.00 0.00 0.00 0.00 0.00 0.00 0.00 0.00 0.00 0.00 0.00 0.00 0.00 0.00 0.00 0.00 0.00 0.00 0.00 0.00 0.00 0.01 0.09 0.16 0.06 0.01 0.00 0.00 0.00 0.00 0.00 0.00 0.04 0.09 0.02 0.02 0.04 0.06
0.00 0.00 0.00 0.00 0.00 0.00 0.00 0.00 0.00 0.00 0.00 0.00 0.00 0.00 0.00 0.00 0.00 0.00 0.00 0.00 0.00 0.00 0.00 0.00 0.00 0.00 0.00 0.04 0.13 0.08 0.01 0.00 0.00 0.00 0.00 0.00 0.01 0.05 0.10 0.02 0.01 0.04 0.06
0.00 0.00 0.00 0.00 0.00 0.00 0.00 0.00 0.00 0.00 0.00 0.00 0.00 0.00 0.00 0.00 0.00 0.00 0.00 0.00 0.00 0.00 0.00 0.00 0.00 0.00 0.00 0.01 0.09 0.10 0.03 0.01 0.00 0.00 0.00 0.00 0.02 0.04 0.05 0.01 0.02 0.03 0.04
0.00 0.00 0.00 0.00 0.00 0.00 0.00 0.00 0.00 0.00 0.00 0.00 0.00 0.00 0.00 0.00 0.00 0.00 0.00 0.00 0.00 0.00 0.00 0.00 0.00 0.00 0.00 0.01 0.05 0.11 0.06 0.02 0.00 0.00 0.00 0.00 0.03 0.03 0.03 0.02 0.02 0.05 0.04
0.00 0.00 0.00 0.00 0.00 0.00 0.00 0.00 0.00 0.00 0.00 0.00 0.00 0.00 0.00 0.00 0.00 0.00 0.00 0.00 0.00 0.00 0.00 0.00 0.00 0.00 0.00 0.00 0.03 0.10 0.10 0.04 0.00 0.00 0.00 0.00 0.02 0.01 0.01 0.02 0.03 0.06 0.05
0.00 0.00 0.00 0.00 0.00 0.00 0.00 0.00 0.00 0.00 0.00 0.00 0.00 0.00 0.00 0.00 0.00 0.00 0.00 0.00 0.00 0.00 0.00 0.00 0.00 0.00 0.00 0.01 0.04 0.08 0.06 0.04 0.01 0.00 0.00 0.00 0.01 0.00 0.00 0.00 0.01 0.02 0.02
0.00 0.00 0.00 0.00 0.00 0.00 0.00 0.00 0.00 0.00 0.00 0.00 0.00 0.00 0.00 0.00 0.00 0.00 0.00 0.00 0.00 0.00 0.01 0.01 0.00 0.00 0.00 0.03 0.06 0.05 0.02 0.02 0.01 0.00 0.00 0.00 0.00 0.00 0.00 0.00 0.00 0.00 0.00
0.00 0.00 0.00 0.00 0.00 0.00 0.00 0.00 0.00 0.00 0.00 0.00 0.00 0.00 0.00 0.00 0.00 0.00 0.00 0.00 0.00 0.01 0.03 0.02 0.01 0.01 0.02 0.09 0.13 0.07 0.02 0.02 0.01 0.00 0.00 0.00 0.00 0.00 0.00 0.00 0.00 0.00 0.00
0.00 0.00 0.00 0.00 0.00 0.00 0.00 0.00 0.00 0.00 0.00 0.00 0.00 0.00 0.00 0.00 0.00 0.00 0.00 0.00 0.00 0.02 0.03 0.03 0.04 0.05 0.08 0.11 0.10 0.06 0.04 0.03 0.02 0.00 0.00 0.00 0.00 0.00 0.00 0.00 0.00 0.00 0.00
0.00 0.00 0.00 0.00 0.00 0.00 0.00 0.00 0.00 0.00 0.00 0.00 0.00 0.00 0.00 0.00 0.00 0.00 0.00 0.00 0.00 0.00 0.00 0.01 0.03 0.04 0.06 0.05 0.05 0.04 0.02 0.01 0.01 0.00 0.00 0.00 0.00 0.00 0.00 0.00 0.00 0.00 0.00
MSLP
1029.65 1030.47 1031.34 1032.23 1033.07 1033.82 1034.40 1034.80 1034.98 1034.96 1034.76 1034.44 1034.06 1033.67 1033.31 1033.02 1032.78 1032.57 1032.35 1032.07 1031.70 1031.22 1030.60 1029.87 1029.07 1028.23 1027.40 1026.61 1025.86 1025.15 1024.43 1023.69 1022.87 1021.95 1020.92 1019.80 1018.62 1017.43 1016.29 1015.25 1014.36 1013.65 1013.10
1029.00 1029.88 1030.82 1031.77 1032.68 1033.49 1034.14 1034.60 1034.85 1034.89 1034.75 1034.48 1034.13 1033.75 1033.39 1033.06 1032.77 1032.50 1032.22 1031.89 1031.49 1030.98 1030.36 1029.65 1028.87 1028.06 1027.26 1026.49 1025.75 1025.04 1024.34 1023.61 1022.83 1021.95 1020.97 1019.91 1018.77 1017.60 1016.45 1015.37 1014.42 1013.60 1012.96
1028.46 1029.41 1030.41 1031.42 1032.37 1033.22 1033.92 1034.43 1034.73 1034.83 1034.76 1034.55 1034.24 1033.88 1033.50 1033.13 1032.78 1032.43 1032.07 1031.67 1031.20 1030.66 1030.03 1029.33 1028.57 1027.79 1027.01 1026.25 1025.53 1024.84 1024.16 1023.47 1022.73 1021.93 1021.04 1020.06 1019.00 1017.89 1016.76 1015.66 1014.64 1013.73 1012.96
1028.05 1029.08 1030.15 1031.20 1032.18 1033.04 1033.75 1034.28 1034.62 1034.77 1034.75 1034.60 1034.33 1033.99 1033.61 1033.21 1032.79 1032.36 1031.91 1031.42 1030.88 1030.29 1029.64 1028.93 1028.18 1027.42 1026.65 1025.91 1025.19 1024.51 1023.86 1023.21 1022.54 1021.83 1021.05 1020.18 1019.23 1018.20 1017.12 1016.02 1014.94 1013.93 1013.03
1027.77 1028.89 1030.02 1031.10 1032.08 1032.93 1033.62 1034.15 1034.49 1034.67 1034.69 1034.58 1034.36 1034.05 1033.67 1033.24 1032.77 1032.27 1031.73 1031.16 1030.55 1029.91 1029.22 1028.50 1027.74 1026.98 1026.21 1025.47 1024.76 1024.09 1023.45 1022.84 1022.24 1021.62 1020.95 1020.21 1019.37 1018.44 1017.41 1016.32 1015.21 1014.11 1013.08
1027.60 1028.82 1030.00 1031.09 1032.06 1032.87 1033.52 1034.00 1034.32 1034.50 1034.55 1034.48 1034.30 1034.02 1033.65 1033.21 1032.71 1032.15 1031.55 1030.91 1030.24 1029.55 1028.82 1028.07 1027.31 1026.53 1025.76 1025.00 1024.28 1023.61 1022.98 1022.39 1021.84 1021.29 1020.71 1020.08 1019.35 1018.50 1017.54 1016.47 1015.34 1014.18 1013.05
1027.49 1028.80 1030.03 1031.13 1032.06 1032.82 1033.40 1033.82 1034.10 1034.26 1034.31 1034.26 1034.11 1033.87 1033.54 1033.11 1032.59 1032.01 1031.37 1030.69 1029.97 1029.24 1028.48 1027.71 1026.93 1026.14 1025.36 1024.58 1023.84 1023.14 1022.50 1021.92 1021.38 1020.87 1020.35 1019.78 1019.13 1018.35 1017.45 1016.41 1015.27 1014.07 1012.88
1027.40 1028.78 1030.05 1031.15 1032.05 1032.74 1033.25 1033.60 1033.82 1033.94 1033.98 1033.95 1033.83 1033.63 1033.33 1032.92 1032.43 1031.84 1031.19 1030.49 1029.76 1029.00 1028.24 1027.46 1026.67 1025.87 1025.06 1024.27 1023.50 1022.76 1022.09 1021.47 1020.92 1020.40 1019.89 1019.34 1018.73 1018.00 1017.13 1016.12 1015.00 1013.79 1012.57
1027.26 1028.70 1030.00 1031.10 1031.97 1032.61 1033.05 1033.34 1033.50 1033.58 1033.61 1033.58 1033.48 1033.31 1033.05 1032.68 1032.21 1031.65 1031.01 1030.32 1029.59 1028.84 1028.08 1027.31 1026.52 1025.72 1024.91 1024.10 1023.30 1022.52 1021.80 1021.13 1020.52 1019.95 1019.40 1018.84 1018.22 1017.50 1016.65 1015.67 1014.57 1013.39 1012.19
1027.02 1028.50 1029.82 1030.93 1031.78 1032.39 1032.79 1033.03 1033.16 1033.22 1033.22 1033.19 1033.12 1032.97 1032.74 1032.41 1031.97 1031.44 1030.83 1030.16 1029.46 1028.73 1027.99 1027.24 1026.48 1025.69 1024.89 1024.07 1023.25 1022.44 1021.66 1020.92 1020.23 1019.59 1018.97 1018.34 1017.67 1016.94 1016.09 1015.14 1014.09 1012.96 1011.80
1026.64 1028.14 1029.48 1030.60 1031.46 1032.08 1032.47 1032.70 1032.82 1032.87 1032.87 1032.84 1032.78 1032.64 1032.43 1032.13 1031.72 1031.22 1030.64 1030.00 1029.32 1028.63 1027.93 1027.21 1026.48 1025.73 1024.95 1024.14 1023.32 1022.48 1021.66 1020.86 1020.09 1019.35 1018.64 1017.94 1017.20 1016.43 1015.58 1014.65 1013.64 1012.58 1011.49
1026.12 1027.62 1028.98 1030.12 1031.01 1031.66 1032.09 1032.35 1032.49 1032.55 1032.57 1032.55 1032.48 1032.36 1032.15 1031.86 1031.46 1030.97 1030.41 1029.80 1029.15 1028.49 1027.82 1027.15 1026.46 1025.75 1025.01 1024.23 1023.42 1022.59 1021.74 1020.90 1020.06 1019.25 1018.45 1017.66 1016.86 1016.04 1015.18 1014.27 1013.32 1012.33 1011.33
1025.47 1026.96 1028.33 1029.50 1030.44 1031.15 1031.65 1031.97 1032.16 1032.27 1032.32 1032.31 1032.25 1032.12 1031.91 1031.60 1031.20 1030.71 1030.16 1029.55 1028.92 1028.28 1027.64 1027.00 1026.35 1025.68 1024.98 1024.25 1023.48 1022.67 1021.83 1020.97 1020.10 1019.24 1018.38 1017.53 1016.67 1015.81 1014.94 1014.05 1013.15 1012.24 1011.32
1024.74 1026.20 1027.57 1028.78 1029.78 1030.56 1031.15 1031.56 1031.83 1032.00 1032.09 1032.10 1032.04 1031.90 1031.67 1031.34 1030.93 1030.43 1029.86 1029.25 1028.62 1027.98 1027.35 1026.72 1026.10 1025.46 1024.81 1024.13 1023.40 1022.64 1021.83 1021.00 1020.14 1019.26 1018.38 1017.49 1016.60 1015.72 1014.85 1013.98 1013.12 1012.27 1011.44
1024.00 1025.43 1026.79 1028.01 1029.07 1029.93 1030.61 1031.11 1031.47 1031.71 1031.85 1031.89 1031.83 1031.68 1031.43 1031.08 1030.63 1030.11 1029.52 1028.89 1028.25 1027.60 1026.95 1026.32 1025.70 1025.08 1024.46 1023.82 1023.14 1022.44 1021.69 1020.91 1020.10 1019.25 1018.38 1017.49 1016.60 1015.72 1014.85 1014.01 1013.19 1012.39 1011.62
1023.33 1024.70 1026.03 1027.26 1028.35 1029.28 1030.04 1030.63 1031.07 1031.38 1031.56 1031.62 1031.58 1031.42 1031.15 1030.77 1030.30 1029.75 1029.14 1028.49 1027.82 1027.15 1026.48 1025.82 1025.18 1024.56 1023.94 1023.32 1022.69 1022.05 1021.37 1020.67 1019.92 1019.14 1018.32 1017.48 1016.61 1015.75 1014.89 1014.07 1013.27 1012.52 1011.79
1022.79 1024.10 1025.38 1026.59 1027.69 1028.65 1029.47 1030.13 1030.63 1030.99 1031.20 1031.29 1031.25 1031.08 1030.80 1030.41 1029.93 1029.37 1028.74 1028.07 1027.38 1026.67 1025.96 1025.26 1024.58 1023.93 1023.30 1022.68 1022.09 1021.49 1020.89 1020.27 1019.61 1018.92 1018.18 1017.40 1016.59 1015.75 1014.92 1014.11 1013.33 1012.59 1011.89
1022.41 1023.64 1024.86 1026.03 1027.11 1028.08 1028.91 1029.60 1030.14 1030.53 1030.77 1030.87 1030.83 1030.66 1030.38 1029.99 1029.51 1028.94 1028.32 1027.65 1026.94 1026.20 1025.46 1024.71 1023.98 1023.28 1022.62 1021.99 1021.40 1020.84 1020.30 1019.76 1019.20 1018.60 1017.96 1017.26 1016.51 1015.72 1014.91 1014.11 1013.33 1012.59 1011.90
1022.19 1023.34 1024.49 1025.59 1026.63 1027.57 1028.40 1029.09 1029.64 1030.03 1030.28 1030.38 1030.34 1030.17 1029.89 1029.51 1029.04 1028.50 1027.90 1027.23 1026.53 1025.78 1025.01 1024.22 1023.45 1022.69 1021.98 1021.32 1020.72 1020.18 1019.69 1019.22 1018.75 1018.25 1017.70 1017.09 1016.41 1015.67 1014.89 1014.10 1013.31 1012.56 1011.85
1022.08 1023.15 1024.21 1025.25 1026.22 1027.12 1027.92 1028.59 1029.12 1029.51 1029.74 1029.83 1029.79 1029.62 1029.35 1028.99 1028.55 1028.04 1027.47 1026.84 1026.15 1025.42 1024.64 1023.83 1023.02 1022.22 1021.47 1020.78 1020.16 1019.62 1019.16 1018.74 1018.34 1017.93 1017.48 1016.95 1016.34 1015.66 1014.91 1014.11 1013.31 1012.53 1011.80
1021.98 1022.98 1023.97 1024.94 1025.86 1026.70 1027.46 1028.10 1028.61 1028.97 1029.19 1029.27 1029.22 1029.05 1028.79 1028.45 1028.04 1027.57 1027.05 1026.46 1025.82 1025.11 1024.35 1023.55 1022.72 1021.90 1021.12 1020.40 1019.77 1019.23 1018.78 1018.41 1018.07 1017.72 1017.35 1016.90 1016.36 1015.73 1015.01 1014.22 1013.41 1012.60 1011.82
1021.81 1022.76 1023.69 1024.60 1025.46 1026.27 1026.99 1027.61 1028.09 1028.44 1028.64 1028.70 1028.64 1028.48 1028.22 1027.90 1027.52 1027.10 1026.63 1026.10 1025.51 1024.86 1024.14 1023.37 1022.56 1021.74 1020.96 1020.23 1019.59 1019.05 1018.61 1018.26 1017.95 1017.66 1017.35 1016.97 1016.49 1015.91 1015.22 1014.46 1013.64 1012.80 1011.98
1021.49 1022.39 1023.28 1024.15 1024.99 1025.77 1026.47 1027.07 1027.55 1027.89 1028.09 1028.15 1028.09 1027.92 1027.68 1027.37 1027.03 1026.64 1026.22 1025.75 1025.23 1024.64 1023.99 1023.27 1022.51 1021.73 1020.97 1020.25 1019.61 1019.08 1018.64 1018.30 1018.01 1017.76 1017.49 1017.15 1016.74 1016.21 1015.56 1014.82 1014.01 1013.17 1012.32
1020.96 1021.84 1022.71 1023.55 1024.38 1025.15 1025.86 1026.47 1026.96 1027.32 1027.53 1027.60 1027.55 1027.40 1027.16 1026.88 1026.55 1026.20 1025.82 1025.41 1024.96 1024.45 1023.87 1023.23 1022.54 1021.82 1021.10 1020.42 1019.80 1019.27 1018.83 1018.49 1018.21 1017.97 1017.72 1017.43 1017.05 1016.58 1015.98 1015.29 1014.51 1013.67 1012.82
1020.23 1021.09 1021.94 1022.78 1023.61 1024.40 1025.13 1025.77 1026.30 1026.69 1026.94 1027.05 1027.03 1026.90 1026.69 1026.42 1026.12 1025.79 1025.46 1025.09 1024.70 1024.27 1023.77 1023.22 1022.62 1021.98 1021.32 1020.69 1020.10 1019.58 1019.14 1018.78 1018.49 1018.24 1018.00 1017.72 1017.38 1016.95 1016.41 1015.77 1015.05 1014.26 1013.43
1019.31 1020.15 1021.00 1021.84 1022.69 1023.50 1024.27 1024.96 1025.55 1026.00 1026.31 1026.48 1026.51 1026.42 1026.25 1026.00 1025.73 1025.43 1025.12 1024.80 1024.46 1024.10 1023.69 1023.22 1022.71 1022.16 1021.58 1021.00 1020.45 1019.94 1019.49 1019.11 1018.79 1018.51 1018.25 1017.97 1017.65 1017.26 1016.78 1016.21 1015.56 1014.84 1014.07
Thickness
5573 5556 5541 5527 5513 5500 5487 5475 5462 5449 5437 5424 5411 5396 5380 5361 5342 5324 5307 5292 5280 5267 5256 5245 5235 5224 5215 5206 5197 5191 5191 5193 5197 5207 5224 5240 5259 5275 5286 5297 5306 5318 5331
5572 5553 5538 5523 5509 5495 5480 5467 5453 5440 5426 5411 5396 5380 5364 5347 5328 5310 5294 5279 5266 5253 5241 5228 5218 5206 5195 5184 5174 5165 5162 5162 5164 5171 5188 5212 5237 5260 5266 5275 5286 5299 5311
5573 5553 5536 5520 5505 5489 5474 5458 5443 5429 5415 5400 5384 5368 5351 5333 5316 5299 5283 5268 5254 5240 5227 5214 5202 5188 5174 5164 5153 5143 5136 5134 5136 5138 5149 5168 5198 5212 5238 5255 5270 5282 5292
5571 5554 5534 5518 5500 5482 5465 5449 5434 5420 5405 5389 5373 5356 5339 5322 5304 5286 5272 5258 5244 5230 5216 5203 5189 5174 5160 5148 5139 5129 5121 5115 5115 5118 5124 5137 5156 5176 5208 5231 5248 5262 5276
5568 5549 5530 5512 5493 5474 5456 5440 5425 5411 5395 5379 5361 5344 5326 5308 5292 5277 5264 5251 5236 5221 5207 5194 5179 5164 5151 5141 5132 5124 5115 5107 5103 5104 5109 5119 5135 5156 5178 5205 5228 5248 5264
5562 5543 5523 5503 5484 5465 5448 5432 5417 5402 5386 5369 5351 5333 5316 5299 5284 5270 5257 5244 5230 5216 5201 5187 5172 5157 5145 5137 5131 5124 5116 5109 5103 5101 5103 5111 5123 5141 5163 5187 5210 5231 5251
5555 5536 5516 5498 5479 5460 5443 5425 5410 5395 5378 5360 5343 5324 5307 5290 5276 5263 5250 5237 5224 5211 5197 5182 5167 5153 5143 5136 5131 5127 5121 5116 5110 5108 5108 5113 5121 5133 5150 5171 5194 5217 5238
5551 5532 5514 5494 5475 5455 5437 5420 5404 5388 5371 5353 5335 5317 5300 5283 5269 5255 5242 5229 5217 5204 5190 5176 5162 5149 5140 5135 5132 5129 5126 5122 5119 5117 5117 5120 5126 5135 5147 5163 5182 5204 5228
5547 5528 5508 5488 5469 5450 5432 5414 5398 5382 5365 5346 5328 5312 5294 5278 5263 5250 5237 5224 5211 5198 5186 5173 5159 5147 5138 5132 5130 5130 5129 5127 5127 5126 5127 5129 5134 5140 5149 5161 5175 5192 5215
5544 5525 5504 5483 5464 5445 5427 5410 5393 5377 5359 5341 5324 5306 5289 5274 5260 5247 5233 5221 5208 5196 5184 5171 5158 5146 5136 5130 5128 5128 5128 5128 5129 5130 5132 5135 5140 5146 5154 5163 5174 5187 5203
5544 5523 5501 5480 5460 5441 5424 5407 5390 5372 5355 5337 5320 5303 5287 5272 5258 5245 5232 5219 5207 5195 5183 5171 5158 5145 5135 5128 5125 5124 5124 5124 5126 5129 5131 5136 5141 5148 5156 5164 5174 5186 5199
5544 5521 5499 5477 5457 5439 5422 5404 5387 5369 5351 5333 5316 5300 5285 5270 5257 5244 5232 5219 5208 5195 5183 5171 5158 5145 5134 5126 5122 5121 5120 5120 5122 5124 5128 5132 5139 5146 5155 5164 5173 5184 5196
5540 5518 5496 5476 5457 5438 5420 5402 5384 5366 5348 5331 5315 5299 5284 5270 5257 5244 5232 5220 5209 5197 5185 5173 5161 5148 5136 5127 5121 5118 5116 5116 5117 5119 5123 5128 5135 5143 5152 5161 5171 5182 5193
5538 5517 5497 5477 5457 5437 5419 5401 5383 5364 5347 5330 5314 5299 5284 5269 5256 5244 5233 5222 5210 5199 5187 5175 5164 5152 5140 5129 5123 5118 5115 5114 5114 5117 5120 5125 5132 5140 5149 5159 5168 5178 5189
5538 5518 5499 5479 5457 5437 5418 5400 5382 5363 5346 5330 5314 5298 5282 5268 5256 5245 5235 5224 5212 5201 5190 5179 5168 5157 5146 5135 5129 5122 5119 5116 5115 5117 5120 5125 5132 5140 5148 5156 5165 5174 5185
5541 5521 5501 5479 5458 5438 5419 5400 5382 5363 5346 5329 5313 5297 5282 5268 5257 5247 5237 5227 5216 5204 5193 5182 5173 5163 5153 5144 5137 5130 5125 5122 5120 5121 5124 5128 5135 5142 5150 5157 5164 5172 5182
5546 5525 5504 5483 5461 5440 5420 5400 5382 5363 5346 5330 5313 5297 5283 5270 5259 5250 5241 5231 5221 5210 5198 5188 5180 5171 5162 5152 5145 5138 5133 5130 5127 5126 5129 5133 5139 5147 5154 5160 5167 5174 5183
5549 5528 5507 5484 5462 5440 5419 5400 5382 5364 5348 5332 5315 5299 5285 5272 5262 5253 5244 5235 5226 5215 5205 5196 5188 5180 5171 5161 5154 5147 5142 5138 5135 5133 5135 5139 5144 5151 5159 5165 5171 5179 5187
5552 5531 5508 5485 5462 5440 5419 5400 5383 5367 5350 5334 5318 5303 5288 5275 5266 5257 5249 5241 5231 5222 5213 5205 5196 5188 5180 5171 5163 5156 5151 5147 5144 5143 5143 5145 5150 5157 5164 5170 5176 5184 5192
5548 5526 5504 5482 5461 5441 5420 5402 5386 5370 5354 5338 5322 5307 5293 5281 5271 5262 5254 5245 5235 5227 5219 5211 5204 5196 5189 5181 5173 5166 5160 5156 5153 5152 5152 5153 5157 5162 5168 5174 5180 5189 5196
5541 5521 5501 5482 5463 5442 5421 5404 5389 5374 5358 5341 5325 5312 5299 5287 5276 5267 5258 5249 5240 5232 5224 5217 5212 5206 5200 5192 5183 5176 5168 5163 5161 5159 5159 5161 5163 5167 5172 5178 5184 5191 5199
5535 5518 5501 5483 5462 5442 5424 5407 5392 5377 5360 5344 5330 5317 5305 5292 5280 5271 5262 5254 5245 5237 5231 5226 5220 5215 5209 5201 5192 5184 5177 5171 5166 5164 5164 5166 5168 5172 5176 5182 5188 5195 5202
5534 5517 5501 5483 5463 5444 5426 5411 5396 5378 5361 5347 5334 5322 5310 5298 5287 5277 5268 5259 5250 5242 5237 5232 5225 5220 5215 5209 5201 5193 5185 5178 5173 5169 5169 5170 5173 5176 5181 5186 5192 5198 5206
5534 5517 5501 5484 5466 5447 5429 5413 5397 5379 5364 5351 5339 5326 5314 5303 5292 5281 5271 5262 5254 5246 5241 5235 5228 5224 5219 5213 5207 5200 5194 5187 5181 5177 5176 5176 5178 5181 5185 5190 5196 5201 5207
5534 5518 5504 5489 5472 5451 5432 5415 5398 5381 5367 5354 5341 5329 5317 5306 5296 5285 5275 5265 5257 5248 5241 5235 5228 5224 5220 5214 5208 5203 5198 5192 5186 5183 5182 5183 5184 5187 5190 5194 5198 5204 5210
5535 5519 5506 5492 5475 5455 5437 5418 5401 5385 5371 5357 5345 5333 5321 5309 5297 5287 5278 5269 5258 5250 5242 5235 5229 5224 5219 5215 5211 5207 5202 5197 5192 5190 5188 5187 5188 5189 5192 5195 5200 5205 5211